Simultaneous Nadir Overpasses (SNOs) Predictions

Prediction of SNOs between METOP-B and NOAA-19 Satellite Orbit:

Table of predicted SNOs for the next 14.0 days since TLE Epoch: 9/29/2017
Index Date (METOP-B) Time (METOP-B) Lat,Lon (METOP-B) SZA (METOP-B ) Date (NOAA-19) Time (NOAA-19) Lat,Lon (NOAA-19) SZA (NOAA-19 ) Distance(km) Time Diff (sec)
1 09/30/2017 07:43:32 -77.83,-108.41 99.14 09/30/2017 07:42:23 -77.84,-110.87 99.22 57.70 69
2 09/30/2017 08:34:18 77.58, 57.71 80.58 09/30/2017 08:33:13 77.60, 57.65 80.60 3.52 65
3 09/30/2017 09:25:00 -77.56,-135.03 99.42 09/30/2017 09:24:18 -77.59,-135.04 99.40 2.83 42
4 09/30/2017 10:15:40 77.56, 32.29 80.59 09/30/2017 10:15:14 77.59, 32.24 80.61 3.27 26
5 09/30/2017 11:06:22 -77.55,-160.44 99.41 09/30/2017 11:06:19 -77.57,-160.45 99.39 2.63 3
6 09/30/2017 11:57:02 77.54, 6.87 80.60 09/30/2017 11:57:15 77.57, 6.83 80.63 3.02 13
7 09/30/2017 12:47:44 -77.53, 174.14 99.41 09/30/2017 12:48:20 -77.55, 174.14 99.38 2.45 36
8 09/30/2017 13:38:24 77.52, -18.55 80.61 09/30/2017 13:39:16 77.55, -18.58 80.64 2.78 52
9 09/30/2017 14:29:06 -77.51, 148.72 99.40 09/30/2017 14:30:21 -77.53, 148.73 99.37 2.27 75
10 10/11/2017 03:52:58 -77.64, -51.67 95.18 10/11/2017 03:51:54 -77.61, -51.73 95.22 3.27 64
11 10/11/2017 04:43:39 77.59, 115.45 84.78 10/11/2017 04:42:51 77.60, 115.58 84.79 3.28 48
12 10/11/2017 05:34:20 -77.62, -77.09 95.18 10/11/2017 05:33:55 -77.59, -77.15 95.21 3.29 25
13 10/11/2017 06:25:01 77.57, 90.03 84.79 10/11/2017 06:24:52 77.58, 90.17 84.80 3.41 9
14 10/11/2017 07:15:42 -77.60,-102.51 95.17 10/11/2017 07:15:56 -77.58,-102.56 95.20 3.31 14
15 10/11/2017 08:06:23 77.56, 64.61 84.80 10/11/2017 08:06:53 77.56, 64.76 84.81 3.53 30
16 10/11/2017 08:57:04 -77.59,-127.92 95.16 10/11/2017 08:57:57 -77.56,-127.98 95.18 3.34 53
17 10/11/2017 09:47:45 77.54, 39.20 84.80 10/11/2017 09:48:54 77.55, 39.35 84.83 3.65 69




NCC Satellite Simultaneous Nadir Overpasses (SNOs) Prediction Service
